Flag for Switzerland Weather past 2 weeks in Emmen, Lucerne, Switzerland

Now
52 °F

Cool.


Feels Like: 52 °F
Forecast: 43 / 75 °F
Wind: 1 mph from Northwest

Location: Giswil

Current Time: Aug 21, 2014 at 4:48:14 AM

Latest Report: Aug 21, 2014 at 4:00 AM


Visibility: N/A

Pressure: 30.12 "Hg

Humidity: 97%

Dew point: 51 °F

Location of EmmenLocation

Historic Weather in Emmen — Graph

°F

Emmen temperature yesterday

Maximum temperature yesterday: 67 °F (at 2:00 PM)
Minimum temperature yesterday: 56 °F (at 6:00 AM)
Average temperature yesterday: 60 °F

Past Weeks' High & Low Weather Summary

 TemperatureHumidityPressure
High82 °F (Aug 10, 5:00 PM)100% (Aug 6, 6:00 AM)30.25 "Hg (Aug 6, 6:00 AM)
Low43 °F (Aug 17, 6:00 AM)47% (Aug 17, 3:00 PM)29.69 "Hg (Aug 13, 10:00 AM)
Average62 °F83%29.99 "Hg
* Reported Aug 6 3:00 AM — Aug 21 3:00 AM, Emmen, Weather by CustomWeather, © 2014

Note: Actual official high and low records may vary slightly from our data, if they occured in-between our weather recording intervals... More about our weather records

Advertising

Emmen weather history for previous 24 hours

 ConditionsComfort  
Time TempWeatherWind HumidityBarometerVisibility
3:00 AM
Aug 21
55 °FCool.1 mph89%30.11 "HgN/A
2:00 AM56 °FCool.2 mph96%30.11 "HgN/A
1:00 AM56 °FCool.1 mph98%30.10 "HgN/A
12:00 AM56 °FCool.1 mph97%30.08 "HgN/A
11:00 PM
Aug 20
58 °FCool.1 mph92%30.06 "HgN/A
10:00 PM59 °FCool.1 mph86%30.03 "HgN/A
9:00 PM59 °FCool.1 mph89%30.02 "HgN/A
8:00 PM61 °FCool.No wind80%30.00 "HgN/A
7:00 PM64 °FMild.1 mph63%29.99 "HgN/A
6:00 PM64 °FMild.2 mph66%29.99 "HgN/A
5:00 PM64 °FMild.1 mph63%29.99 "HgN/A
4:00 PM65 °FMild.6 mph57%29.98 "HgN/A
3:00 PM66 °FMild.3 mph54%29.98 "HgN/A
2:00 PM67 °FMild.3 mph57%29.99 "HgN/A
1:00 PM65 °FMild.3 mph61%30.00 "HgN/A
12:00 PM64 °FMild.3 mph63%30.01 "HgN/A
11:00 AM62 °FCool.2 mph68%30.03 "HgN/A
10:00 AM60 °FCool.2 mph74%30.03 "HgN/A
9:00 AM59 °FCool.1 mph88%30.04 "HgN/A
8:00 AM57 °FCool.1 mph94%30.03 "HgN/A
7:00 AM56 °FCool.1 mph94%30.03 "HgN/A
6:00 AM56 °FCool.1 mph96%30.04 "HgN/A
5:00 AM57 °FCool.1 mph95%30.04 "HgN/A
4:00 AM57 °FCool.1 mph96%30.04 "HgN/A
Weather by CustomWeather, © 2014

See weather overviewHow to use our weather pages